Weather History for Dublin, Ireland

Change the Weather History Date:

Saturday, February 16, 2013

  Actual Average Record
Temperature  
Mean Temperature 45 °F -  
Max Temperature 55 °F 48 °F 55 °F (2013)
Min Temperature 35 °F 37 °F 28 °F (2001)
Degree Days  
Heating Degree Days 20    
Moisture  
Dew Point 41 °F    
Average Humidity 84    
Maximum Humidity 100    
Minimum Humidity 66    
Precipitation  
Precipitation 0.01 in 0.07 in - ()
Sea Level Pressure  
Sea Level Pressure 30.06 in    
Wind  
Wind Speed 6 mph ()    
Max Wind Speed 21 mph    
Max Gust Speed -    
Visibility 7.0 miles    
Events Rain    
Averages and records for this station are not official NWS values.
T = Trace of Precipitation, MM = Missing Value Source: Averaged Metar Reports

Daily Weather History Graph

Daily Weather History Graph

Search for Another Location

Airport:

Trip Planner

Search our weather history database for the weather conditions in past years. The results will help you decide how hot, cold, wet, or windy it might be!

Date:

Astronomy

Feb. 16, 2013 Rise Set
Actual Time 7:41 AM GMT 5:38 PM GMT
Civil Twilight 7:05 AM GMT 6:14 PM GMT
Nautical Twilight 6:24 AM GMT 6:54 PM GMT
Astronomical Twilight 5:44 AM GMT 7:35 PM GMT
Moon 9:44 AM GMT 12:22 AM GMT
Length of Visible Light 11h 08m
Length of Day
9h 56m
Waxing Crescent, 37% of the Moon is Illuminated
Feb 16
Waxing Crescent
Feb 17
First Quarter
Feb 25
Full
Mar 4
Last Quarter
Mar 11
New

Hourly Weather History & Observations

Time (GMT) Temp. Windchill Dew Point Humidity Pressure Visibility Wind Dir Wind Speed Gust Speed Precip Events Conditions
12:00 AM 36 °F - 33 °F 86% 30.12 in 16 mi ESE 6.7 mph - -   Partly Cloudy
12:00 AM 35.6 °F 30.7 °F 33.8 °F 93% 30.09 in 6.2 mi ESE 5.8 mph - N/A   Scattered Clouds
12:30 AM 37.4 °F 34.9 °F 33.8 °F 87% 30.09 in 6.2 mi Variable 3.5 mph - N/A   Scattered Clouds
1:00 AM 37.4 °F 34.9 °F 35.6 °F 93% 30.09 in 6.2 mi ESE 3.5 mph - N/A   Scattered Clouds
1:30 AM 39.2 °F - 37.4 °F 93% 30.09 in 6.2 mi North 1.2 mph - N/A   Mostly Cloudy
2:00 AM 39.2 °F - 37.4 °F 93% 30.09 in 6.2 mi West 1.2 mph - N/A Rain Light Rain
2:30 AM 41.0 °F - 39.2 °F 93% 30.09 in 6.2 mi SW 2.3 mph - N/A   Mostly Cloudy
3:00 AM 41.0 °F - 39.2 °F 93% 30.06 in 6.2 mi West 1.2 mph - N/A   Mostly Cloudy
3:30 AM 41.0 °F - 39.2 °F 93% 30.06 in 6.2 mi Variable 2.3 mph - N/A   Mostly Cloudy
4:00 AM 41.0 °F 38.0 °F 39.2 °F 93% 30.06 in 6.2 mi ESE 4.6 mph - N/A   Mostly Cloudy
4:30 AM 42.8 °F 39.3 °F 39.2 °F 87% 30.06 in 6.2 mi ESE 5.8 mph - N/A   Mostly Cloudy
5:00 AM 42.8 °F 40.1 °F 39.2 °F 87% 30.06 in 6.2 mi ESE 4.6 mph - N/A   Mostly Cloudy
5:30 AM 42.8 °F - 39.2 °F 87% 30.06 in 6.2 mi Variable 2.3 mph - N/A   Mostly Cloudy
6:00 AM 42 °F - 40 °F 90% 30.09 in 16 mi ESE 4.5 mph - -   Partly Cloudy
6:00 AM 42.8 °F - 41.0 °F 93% 30.06 in 6.2 mi Variable 2.3 mph - N/A   Mostly Cloudy
6:30 AM 42.8 °F 40.1 °F 41.0 °F 93% 30.06 in 6.2 mi ESE 4.6 mph - N/A   Mostly Cloudy
7:00 AM 42.8 °F 39.3 °F 41.0 °F 93% 30.06 in 6.2 mi SSE 5.8 mph - N/A   Mostly Cloudy
7:30 AM 42.8 °F 40.1 °F 42.8 °F 100% 30.06 in 6.2 mi South 4.6 mph - N/A   Mostly Cloudy
8:00 AM 44.6 °F 42.2 °F 42.8 °F 93% 30.09 in 6.2 mi SSE 4.6 mph - N/A   Mostly Cloudy
8:30 AM 44.6 °F 42.2 °F 42.8 °F 93% 30.09 in 6.2 mi SE 4.6 mph - N/A   Mostly Cloudy
9:00 AM 44.6 °F 42.2 °F 44.6 °F 100% 30.09 in 6.2 mi SSE 4.6 mph - N/A Rain Light Rain
9:30 AM 46.4 °F 43.5 °F 44.6 °F 93% 30.09 in 6.2 mi SE 5.8 mph - N/A Rain Light Rain
10:00 AM 48.2 °F - 46.4 °F 93% 30.06 in 6.2 mi SE 5.8 mph - N/A   Mostly Cloudy
10:30 AM 48.2 °F - 46.4 °F 93% 30.06 in 6.2 mi SE 6.9 mph - N/A   Mostly Cloudy
11:00 AM 50.0 °F - 46.4 °F 87% 30.06 in 6.2 mi SE 6.9 mph - N/A   Mostly Cloudy
11:30 AM 51.8 °F - 46.4 °F 82% 30.09 in 6.2 mi SE 5.8 mph - N/A   Mostly Cloudy
12:00 PM 51 °F - 46 °F 78% 30.09 in 16 mi SE 6.7 mph - - Rain Light Rain
12:00 PM 51.8 °F - 46.4 °F 82% 30.06 in 6.2 mi SE 5.8 mph - N/A   Mostly Cloudy
12:30 PM 51.8 °F - 46.4 °F 82% 30.06 in 6.2 mi SE 5.8 mph - N/A   Mostly Cloudy
1:00 PM 51.8 °F - 46.4 °F 82% 30.06 in 6.2 mi SE 6.9 mph - N/A   Mostly Cloudy
1:30 PM 53.6 °F - 44.6 °F 72% 30.04 in 6.2 mi Variable 3.5 mph - N/A   Mostly Cloudy
2:00 PM 55.4 °F - 44.6 °F 67% 30.04 in 6.2 mi SSE 12.7 mph - N/A   Scattered Clouds
2:30 PM 51.8 °F - 42.8 °F 71% 30.04 in 6.2 mi SSE 10.4 mph - N/A   Scattered Clouds
3:00 PM 51.8 °F - 42.8 °F 71% 30.04 in 6.2 mi SSW 13.8 mph - N/A   Scattered Clouds
3:30 PM 51.8 °F - 42.8 °F 71% 30.04 in 6.2 mi SSW 13.8 mph - N/A   Mostly Cloudy
4:00 PM 50.0 °F - 42.8 °F 76% 30.06 in 6.2 mi South 13.8 mph - N/A   Mostly Cloudy
4:30 PM 50.0 °F - 42.8 °F 76% 30.04 in 6.2 mi South 9.2 mph - N/A   Mostly Cloudy
5:00 PM 48.2 °F - 41.0 °F 76% 30.04 in 6.2 mi SSE 11.5 mph - N/A   Mostly Cloudy
5:30 PM 48.2 °F - 41.0 °F 76% 30.04 in 6.2 mi SSE 10.4 mph - N/A   Mostly Cloudy
6:00 PM 48 °F - 40 °F 66% 30.07 in 19 mi SSE 11.2 mph - -   Mostly Cloudy
6:00 PM 48.2 °F - 41.0 °F 76% 30.04 in 6.2 mi SSE 9.2 mph - N/A   Mostly Cloudy
6:30 PM 48.2 °F - 39.2 °F 71% 30.06 in 6.2 mi South 9.2 mph - N/A   Mostly Cloudy
7:00 PM 46.4 °F 41.1 °F 39.2 °F 76% 30.04 in 6.2 mi SSE 11.5 mph - N/A   Mostly Cloudy
7:30 PM 46.4 °F 40.7 °F 39.2 °F 76% 30.06 in 6.2 mi SSE 12.7 mph - N/A   Mostly Cloudy
8:00 PM 46.4 °F 40.4 °F 41.0 °F 81% 30.06 in 6.2 mi SE 13.8 mph - N/A   Mostly Cloudy
8:30 PM 46.4 °F 40.4 °F 41.0 °F 81% 30.06 in 6.2 mi SSE 13.8 mph - N/A   Mostly Cloudy
9:00 PM 46.4 °F 41.1 °F 41.0 °F 81% 30.06 in 6.2 mi SSE 11.5 mph - N/A   Mostly Cloudy
9:30 PM 46.4 °F 40.7 °F 41.0 °F 81% 30.06 in 6.2 mi SSE 12.7 mph - N/A   Mostly Cloudy
10:00 PM 46.4 °F 41.1 °F 41.0 °F 81% 30.04 in 6.2 mi SSE 11.5 mph - N/A   Mostly Cloudy
10:30 PM 46.4 °F 41.1 °F 41.0 °F 81% 30.04 in 6.2 mi SSE 11.5 mph - N/A   Mostly Cloudy
11:00 PM 44.6 °F 36.4 °F 41.0 °F 87% 30.04 in 6.2 mi SSE 20.7 mph - N/A   Mostly Cloudy
11:30 PM 44.6 °F 36.6 °F 41.0 °F 87% 30.04 in 6.2 mi SSE 19.6 mph - N/A   Mostly Cloudy